TimeEDT,TemperatureF,Dew PointF,Humidity,Sea Level PressureIn,VisibilityMPH,Wind Direction,Wind SpeedMPH,Gust SpeedMPH,PrecipitationIn,Events,Conditions,WindDirDegrees,DateUTC
12:58 AM,72.3,68.9,89,30.14,10.0,Calm,Calm,-,N/A,,Clear,0,2013-09-10 04:58:00
1:58 AM,70.3,67.8,92,30.15,10.0,Calm,Calm,-,N/A,,Clear,0,2013-09-10 05:58:00
2:58 AM,68.7,66.7,93,30.14,10.0,NNE,3.5,-,N/A,,Clear,30,2013-09-10 06:58:00
3:58 AM,67.5,65.3,93,30.15,10.0,North,1.2,-,N/A,,Clear,360,2013-09-10 07:58:00
4:58 AM,67.6,65.8,94,30.16,10.0,ENE,3.5,-,N/A,,Clear,60,2013-09-10 08:58:00
5:58 AM,67.8,66.4,95,30.16,10.0,NE,2.3,-,N/A,,Clear,50,2013-09-10 09:58:00
6:43 AM,66.2,64.4,94,30.18,9.0,NE,4.6,-,N/A,,Clear,40,2013-09-10 10:43:00
6:48 AM,66.2,64.4,94,30.18,10.0,NE,5.8,-,N/A,,Clear,40,2013-09-10 10:48:00
6:58 AM,66.7,65.1,95,30.19,10.0,NE,4.6,-,N/A,,Clear,50,2013-09-10 10:58:00
7:58 AM,69.4,68.2,96,30.20,6.0,NE,4.6,-,N/A,,Clear,40,2013-09-10 11:58:00
8:58 AM,73.9,70.3,88,30.21,10.0,NE,6.9,-,N/A,,Clear,40,2013-09-10 12:58:00
9:58 AM,79.3,70.9,75,30.23,10.0,Variable,5.8,-,N/A,,Clear,0,2013-09-10 13:58:00
10:55 AM,82.4,69.8,66,30.23,10.0,North,5.8,-,N/A,,Clear,10,2013-09-10 14:55:00
11:55 AM,84.2,68.0,58,30.22,10.0,NNE,5.8,-,N/A,,Scattered Clouds,30,2013-09-10 15:55:00
12:55 PM,87.8,68.0,52,30.20,10.0,Variable,2.3,-,N/A,,Scattered Clouds,0,2013-09-10 16:55:00
1:58 PM,88.3,67.5,50,30.20,10.0,Variable,6.9,-,N/A,,Partly Cloudy,0,2013-09-10 17:58:00
2:58 PM,91.6,65.7,42,30.18,10.0,Variable,4.6,-,N/A,,Clear,0,2013-09-10 18:58:00
3:58 PM,91.2,66.6,44,30.16,10.0,East,9.2,-,N/A,,Clear,100,2013-09-10 19:58:00
4:58 PM,90.7,65.5,43,30.15,10.0,East,6.9,-,N/A,,Clear,100,2013-09-10 20:58:00
5:58 PM,89.4,65.8,46,30.14,10.0,ESE,6.9,-,N/A,,Clear,110,2013-09-10 21:58:00
6:58 PM,86.7,65.1,48,30.14,10.0,ESE,4.6,-,N/A,,Clear,110,2013-09-10 22:58:00
7:58 PM,81.1,66.4,61,30.15,10.0,SE,3.5,-,N/A,,Partly Cloudy,130,2013-09-10 23:58:00
8:58 PM,78.4,68.0,70,30.18,10.0,SE,3.5,-,N/A,,Clear,130,2013-09-11 00:58:00
9:58 PM,76.8,68.2,75,30.19,10.0,South,2.3,-,N/A,,Clear,180,2013-09-11 01:58:00
10:58 PM,74.1,68.0,81,30.21,10.0,Calm,Calm,-,N/A,,Clear,0,2013-09-11 02:58:00
11:58 PM,71.2,66.0,84,30.20,10.0,NE,4.6,-,N/A,,Clear,50,2013-09-11 03:58:00